This demonstration page uses our WeatherBlox Daily Observations layout. Learn more.

Left ArrowRight Arrow

41.55636, -103.73856

Hourly Observations for March 11, 2015

Temp ( °F °C ) Dew Point ( °F °C ) Humidity (%) Winds ( mph kmh ) Pressure ( in mb ) Visibility ( mi km ) Precip ( " mm )
12:53 am 00:53 Clear 34 1.1 18 -7.8 52 52 E 5 7 30.12 1020 10 16.0934 0 0
1:53 am 01:53 Clear 31 -0.6 18 -7.8 59 59 Calm 30.13 1020 10 16.0934 0 0
2:53 am 02:53 Clear 25 -3.9 19 -7.2 78 78 NNW 7 11 30.16 1021 10 16.0934 0 0
3:53 am 03:53 Clear 25 -3.9 19 -7.2 78 78 NNW 5 7 30.16 1022 10 16.0934 0 0
4:53 am 04:53 Clear 24 -4.4 18 -7.8 77 77 NNW 6 9 30.17 1022 10 16.0934 0 0
5:53 am 05:53 Clear 24 -4.4 17 -8.3 75 75 SSW 3 6 30.18 1022 10 16.0934 0 0
6:53 am 06:53 Clear 24 -4.4 17 -8.3 75 75 E 8 13 30.2 1023 10 16.0934 0 0
7:53 am 07:53 Sunny 27 -2.8 21 -6.1 78 78 Calm 30.23 1024 10 16.0934 0 0
8:53 am 08:53 Sunny 38 3.3 22 -5.6 52 52 Calm 30.22 1023 10 16.0934 0 0
9:53 am 09:53 Sunny 45 7.2 24 -4.4 44 44 ESE 3 6 30.2 1023 10 16.0934 0 0
10:53 am 10:53 Sunny 55 12.8 24 -4.4 30 30 SE 3 6 30.17 1022 10 16.0934 0 0
11:53 am 11:53 Sunny 63 17.2 25 -3.9 24 24 SSE 5 7 30.14 1021 10 16.0934 0 0
12:53 pm 12:53 Sunny 72 22.2 14 -10 11 11 SW 16 26 30.07 1018 10 16.0934 0 0
1:53 pm 13:53 Sunny 72 22.2 13 -10.6 10 10 SSW 16 26 30.05 1018 10 16.0934 0 0
2:53 pm 14:53 Sunny 73 22.8 12 -11.1 9 9 SSW 17 28 30.05 1018 10 16.0934 0 0
3:53 pm 15:53 Sunny 73 22.8 13 -10.6 10 10 SW 20 31 30.04 1017 10 16.0934 0 0
4:53 pm 16:53 Sunny 72 22.2 14 -10 11 11 SW 15 24 30.04 1017 10 16.0934 0 0
5:53 pm 17:53 Sunny 67 19.4 14 -10 13 13 SSW 12 19 30.04 1017 10 16.0934 0 0
6:53 pm 18:53 Sunny 60 15.6 16 -8.9 18 18 S 7 11 30.08 1019 10 16.0934 0 0
7:53 pm 19:53 Clear 59 15 15 -9.4 18 18 Calm 30.09 1019 10 16.0934 0 0
8:53 pm 20:53 Clear 50 10 19 -7.2 29 29 Calm 30.09 1019 10 16.0934 0 0
9:53 pm 21:53 Clear 47 8.3 19 -7.2 33 33 NNW 5 7 30.09 1019 10 16.0934 0 0
10:53 pm 22:53 Clear 48 8.9 21 -6.1 34 34 Calm 30.06 1018 10 16.0934 0 0
11:53 pm 23:53 Clear 41 5 22 -5.6 47 47 E 6 9 30.05 1018 10 16.0934 0 0

Powered by AerisWeather